STARLINK-32348, 61631

Orbit data source: Space-Track

STARLINK-32348, 61631 is a payload satellite owned by SpaceX/Seattle (US) in LEO that was launched on Wed, 23 Oct 2024 UTC via an FALCON 9 launch vehicle from the Air Force Eastern Test Range (AFETR). Payload-class satellites include a variety of spacecraft equipped with specific instruments for various scientific and technological missions. These include communications satellites like Starlink; space stations such as the ISS; scientific satellites like the Hubble; Earth observation satellites from companies like Planet Labs, Umbra, and HawkEye 360; GPS; miniature CubeSats for education and research; and military/defense satellites.

Loading next visibility...
Identifier
61631, 2024-191L
Orbit
LEO
Country
Flag of USUS
Related business
Manufacturer
SpaceX/Seattle
Mission
Operational Commercial Communications
Bus & Motor
STARLINK V2M, Unknown motor
Mass
730 kg wet, ~700 kg dry
Launch date (UTC)
2024-10-23 (1 year ago)
Launch vehicle
FALCON 9
Launch site
Air Force Eastern Test Range (AFETR)
Object type
Payload
Rocket body
Debris
Shape & HBR
Box + 2 Pan, 17.7 m
Radar Cross Section
33.884 m², Large (>1 m²)

Expand to show TLE details & history
Last TLE update: 22 hours ago

TLE from 22 hours ago
0 STARLINK-32348
1 61631U 24191L   25288.32431952 -.00000383  00000-0 -44086-5 0  9991
2 61631  43.0030 259.0069 0001202 285.6681  74.4038 15.27575277 55263
Epoch: 2025-10-15T07:47Z
TLE epoch observation values (Epoch: 2025-10-15T07:47:01.206Z)
Latitude
-0.00002°
Longitude
118.15182°
Altitude
482.617 km
Speed
7.626 km/s
True Right ascension
17h 16m 01s
True Declination
0° 00' 00"
Sunlit
Object was in daylight at epoch
Visualization orbit readout
Latitude
Unknown
Longitude
Unknown
Altitude
Unknown
Speed
Unknown
Apparent Right ascension
Unknown
Apparent Declination
Unknown
Sunlit
N/A
Visualization observer readout
Local Sidereal Time
00:05:23
Azimuth
Unknown
Elevation
Unknown
Doppler factor
Unknown
Orbital elements
Apogee altitude
485.833 km
Perigee altitude
484.183 km
Semi-major axis
6,863.145 km
Eccentricity
0.00012
Inclination
43.003°
RAAN
259.0069°
Arg. of periapsis
285.6681°
True anomaly
74.41707°
Mean anomaly
74.4038°
Eccentric anomaly
74.41043°
Mean motion
3.81732 °/min
Orbital period
94.31 mins
BSTAR
-0.0000044086
Loading maneuver chart data...
Computing Atmospheric mass density...
Loading historical data...
Loading historical data...
Loading historical data...
Loading historical data...
Loading historical data...
Loading historical data...
Loading historical data...

Documentation

Showing up to 5 results
|